Voltar ao catálogo

STARLINK-31160

AtivoComunicaçõesVLEO
NORAD 58749·PAYLOAD·🇺🇸 United States

Lançado Jan 7, 2024 de Cape Canaveral Space Force Station

Loading…

Próximas Passagens (próximas 24 horas)

TLE

AtualizadoSource: CelesTrak SupGP

Época: Sep 14, 2026, 21:25 UTC

1 58749C 24005X   26257.89284722  .00033122  00000+0  11999-2 0  2576
2 58749  42.9998 231.4817 0001384 257.2160 195.7663 15.27555980    16

Acompanhe STARLINK-31160 em tempo real com AllMySat

Download on the App Store